Location: Monte Fanovecchio
(43.4000°N, 13.4167°E)
Time: 06:33:02
(UTC+00:00)

Daily predictions for brighter satellites

Satellite Brightness Start Highest point End
(mag) Time Altitude Azimuth Time Altitude Azimuth Time Altitude Azimuth
BREEZE-M DEB (TANK) 4.1 15:59:14 10° SSW 16:02:37 51° SE 16:12:43 10° ENE
Cosmos 1943 Rocket 4.3 16:04:58 10° W 16:09:09 21° NW 16:13:23 10° N
Meteor 2-10 Rocket 3.4 16:05:48 10° S 16:10:47 81° E 16:15:51 10° NNE
Cosmos 2151 4.5 16:09:31 10° NNW 16:13:34 43° W 16:17:35 10° SSW
PSLV R/B 4.1 16:12:54 10° NNE 16:17:09 85° WNW 16:21:22 10° SSW
Cosmos 1437 2.5 16:14:12 10° N 16:17:17 74° E 16:20:20 10° SSE
Feng Yun 1-1 Rocket 4.2 16:12:47 10° SSE 16:18:23 70° ENE 16:23:53 10° N
CZ-4B R/B 4.4 16:13:34 10° S 16:18:41 48° W 16:23:48 10° NNW
Genesis I 3.6 16:14:51 10° SSW 16:18:43 48° ESE 16:22:35 10° NE
YAOGAN 1 4.2 16:17:01 10° E 16:19:21 14° ENE 16:21:41 10° NNE
Meteor 2-3 Rocket 3.8 16:15:28 10° N 16:21:16 66° ENE 16:26:59 10° SSE
Okean-O 3.1 16:18:14 10° SE 16:22:21 40° ENE 16:26:31 10° N
Cosmos 2221 2.5 16:20:27 10° S 16:24:41 63° E 16:28:59 10° NNE
TSX-5 4.1 16:21:28 10° SSW 16:25:13 77° WNW 16:30:03 10° NNE
SeaSat 1 2.6 16:22:19 10° SE 16:27:04 51° ENE 16:31:51 10° NNW
Cosmos 1697 Rocket 4.2 16:24:07 10° SE 16:27:16 15° E 16:30:18 10° ENE
Cosmos 1842 Rocket 3.7 16:24:19 10° S 16:28:48 83° W 16:33:18 10° N
CZ-3B R/B 4.4 16:28:43 10° WNW 16:30:12 16° NNW 16:32:08 10° NNE
PSLV R/B 3.7 16:29:28 10° SW 16:31:50 34° SSE 16:33:52 12° ESE
Cosmos 1356 Rocket 4.3 16:30:17 10° SSE 16:33:47 28° E 16:37:22 10° NNE
ATLAS 5 CENTAUR R/B 2.8 16:29:58 10° NNW 16:35:21 41° NE 16:41:28 10° ESE
Geosat 4.0 16:30:20 10° NNE 16:35:23 73° ESE 16:40:23 10° SSW
Cosmos 2233 Rocket 4.0 16:31:45 10° N 16:38:07 81° E 16:44:24 10° S
Lacrosse 4 Rocket 3.1 16:36:04 10° SE 16:38:16 14° ESE 16:39:13 13° E
SKYMED 2 4.4 16:34:56 10° NNE 16:38:48 30° E 16:42:38 10° SSE
Cosmos 1447 Rocket 4.5 16:34:29 10° S 16:40:39 69° E 16:46:54 10° NNE
AQUARIUS 4.3 16:37:55 10° SSE 16:42:24 84° WSW 16:46:56 10° NNW
Cosmos 1867 3.9 16:40:21 10° SW 16:45:47 70° NW 16:51:16 10° NNE
Ariane Rocket 4.4 16:48:10 16° ENE 16:48:49 16° ENE 16:51:53 10° NNE
Cosmos 1743 Rocket 4.2 16:46:01 10° NNW 16:50:19 59° W 16:54:37 10° S
Cosmos 1805 Rocket 3.6 16:46:38 10° N 16:50:54 53° E 16:55:11 10° SSE
YAOGAN 3 4.5 16:48:44 10° SSE 16:53:04 80° ENE 16:57:28 10° N
NOAA 12 4.1 16:51:48 10° SSE 16:57:08 86° ENE 17:02:30 10° NNW
ERBS 3.6 16:55:26 10° S 16:58:07 23° SE 16:58:41 22° ESE
Cosmos 1464 Rocket 4.2 16:52:20 10° N 16:58:15 46° ENE 17:04:06 10° SSE
CZ-4 R/B 1.8 16:54:38 10° SE 16:58:35 42° ENE 17:02:28 10° N
GEOS 3 Rocket 4.3 16:54:04 10° NNE 16:59:08 53° NW 17:04:14 10° WSW
NOSS 8 (A) 4.4 16:56:26 10° SW 16:59:41 68° NW 17:01:44 19° NNE
Cosmos 773 Rocket 4.0 16:55:04 10° SSW 17:00:13 87° WNW 17:05:27 10° NNE
Cosmos 1869 3.1 16:59:06 10° S 17:03:03 79° E 17:07:01 10° N
Meteor 2-20 Rocket 4.4 16:57:37 10° S 17:03:38 63° E 17:09:41 10° NNE
SMAP 4.3 17:00:27 10° S 17:04:54 45° W 17:09:23 10° NNW
CSL-04 Debris 4.4 17:00:07 10° SE 17:05:19 46° ENE 17:10:34 10° N
Cosmos 1656 3.7 17:00:45 10° S 17:06:10 56° ESE 17:11:00 13° NE
Cosmos 1072 Rocket 4.5 17:00:27 10° N 17:06:30 58° E 17:12:33 10° SSE
Cosmos 2219 3.3 17:05:05 10° NNW 17:10:43 79° WSW 17:16:19 10° SSE
Cosmos 1538 Rocket 4.0 17:08:38 10° SSW 17:13:53 87° WNW 17:19:14 10° NNE
Cosmos 1238 Rocket 4.3 17:09:44 10° NNW 17:14:04 42° W 17:17:39 10° SSW
Cosmos 1939 Rocket 4.2 17:17:44 23° NE 17:17:44 23° NE 17:19:55 10° N
Cosmos 1633 Rocket 3.2 17:17:36 10° N 17:21:53 49° ENE 17:26:10 10° SSE
Cosmos 1633 2.4 17:20:16 10° N 17:23:54 66° E 17:27:31 10° SSE
CSL-04 Rocket 3.5 17:20:25 10° SSE 17:25:45 68° ENE 17:31:03 10° N
FengYun 1-2 T 4.2 17:20:46 10° SSE 17:26:19 86° WSW 17:31:51 10° NNW
COSMO-SKYMED 1 2.6 17:22:33 10° N 17:26:55 81° WNW 17:31:15 10° SSW
Cosmos 1980 Rocket 3.2 17:25:19 10° SSE 17:28:59 26° ESE 17:28:59 26° ESE
Cosmos 1666 Rocket 3.4 17:27:09 10° N 17:31:32 77° E 17:35:53 10° SSE
Cosmos 1607 4.0 17:26:24 10° NW 17:32:39 82° WSW 17:38:54 10° SSE
Cosmos 2227 Rocket 2.2 17:27:31 10° NNW 17:33:14 85° WSW 17:38:52 10° SSE
Cosmos 2297 Rocket 2.3 17:28:01 10° NNW 17:33:42 78° WSW 17:39:20 10° SSE
Cosmos 1328 Rocket 3.6 17:32:51 10° S 17:37:10 54° E 17:37:15 54° E
Sich 1 3.4 17:33:34 10° NNW 17:37:52 66° W 17:42:11 10° S
YAOGAN 6 3.2 17:34:39 10° S 17:38:06 55° W 17:41:33 10° NNW
USA 215 3.5 17:37:20 35° ENE 17:39:43 49° NNE 17:45:59 10° NW
Envisat 4.2 17:39:36 10° S 17:44:25 43° W 17:49:16 10° NNW
Cosmos 2369 3.6 17:40:23 10° SSW 17:46:01 74° ESE 17:48:29 35° NE
Cosmos 1151 Rocket 3.4 17:41:59 10° S 17:45:18 48° SSE 17:45:18 48° SSE
NOSS 2-3 (E) 3.8 17:43:20 10° SSW 17:47:11 53° SE 17:47:11 53° SE
USA 229 DEB 4.0 17:43:10 10° SW 17:49:40 62° NW 17:54:26 21° NNE
USA 229 4.0 17:43:18 10° SW 17:49:47 63° NW 17:54:29 21° NNE
Cosmos 1862 3.5 17:49:04 10° NNW 17:53:01 67° W 17:56:57 10° S
Cosmos 2034 Rocket 3.9 17:47:21 10° N 17:53:45 87° E 18:00:08 10° S
NOSS 3-1 (A) 3.2 17:49:17 10° SW 17:54:46 88° NW 17:57:10 39° NE
YAOGAN 1 3.0 17:50:41 10° S 17:54:56 60° WSW 17:59:15 10° NNW
IRS-1A Rocket 4.3 17:55:13 54° ENE 17:55:13 54° ENE 18:00:42 10° N
NOSS 3-1 (C) 3.8 17:50:55 10° SW 17:56:22 58° NW 17:59:55 25° NNE
Cosmos 2360 4.3 17:51:12 10° S 17:56:27 54° ESE 17:56:27 54° ESE
NOSS 2-3 (D) 3.9 17:52:37 10° SSW 17:56:04 52° S 17:56:04 52° S
Cosmos 2346 Rocket 4.3 17:51:39 10° S 17:57:53 78° E 18:04:07 10° N
Cosmos 2082 3.6 17:53:53 10° NNW 17:59:32 83° WSW 18:02:34 29° SSE
Cosmos 2263 Rocket 4.0 17:55:37 10° N 17:57:19 16° NNE 17:57:19 16° NNE
Cosmos 2278 3.5 18:00:55 10° SSW 18:06:35 80° ESE 18:07:12 70° NE
Cosmos 1697 Rocket 2.7 18:04:50 10° SSW 18:10:29 78° WNW 18:12:06 48° N
Cosmos 2112 Rocket 3.9 18:06:42 10° SSW 18:11:30 77° S 18:11:30 77° S
Tsikada Rocket 3.9 18:05:59 10° S 18:12:19 86° E 18:18:46 10° N
Lacrosse 4 Rocket 2.4 18:12:30 10° SW 18:15:36 42° WSW 18:15:36 42° WSW
Cosmos 1680 Rocket 3.7 18:14:42 10° SSW 18:19:53 68° WNW 18:20:18 65° NW
ATLAS 5 CENTAUR R/B 3.4 18:14:31 10° NW 18:20:11 45° WSW 18:25:50 13° S
Ariane Rocket 3.6 18:28:23 51° NW 18:28:23 51° NW 18:32:17 10° NNW
CZ-4 R/B 4.3 18:30:59 10° SW 18:33:46 17° W 18:36:31 10° NW
Cosmos 1980 Rocket 4.0 19:08:21 10° SW 19:10:50 25° WSW 19:10:50 25° WSW
USA 215 4.2 19:24:41 43° WNW 19:24:41 43° WNW 19:29:07 10° NW
